Stations météo

Publicité
Luxeuil, France (7292): Température de l'air & dewpoint: 16.01.2019 03:00:00 - 22.01.2019 03:00:00 (CET)Luxeuil, France (7292): Température de l'air 5cm: 16.01.2019 03:00:00 - 22.01.2019 03:00:00 (CET)Luxeuil, France (7292): Température de l'air -20cm & Température de l'air -100cm: 16.01.2019 03:00:00 - 22.01.2019 03:00:00 (CET)Luxeuil, France (7292): Vitesse du vent & gusts: 16.01.2019 03:00:00 - 22.01.2019 03:00:00 (CET)Luxeuil, France (7292): Direction du vent: 16.01.2019 03:00:00 - 22.01.2019 03:00:00 (CET)Luxeuil, France (7292): reduced air pressure: 16.01.2019 03:00:00 - 22.01.2019 03:00:00 (CET)Luxeuil, France (7292): visibility: 16.01.2019 03:00:00 - 22.01.2019 03:00:00 (CET)Luxeuil, France (7292): Ensoleillement: 16.01.2019 03:00:00 - 22.01.2019 03:00:00 (CET)Luxeuil, France (7292): Quantités de précipitations: 16.01.2019 03:00:00 - 22.01.2019 03:00:00 (CET)
Date & Time tt [°C] td [°C] tt 5cm [°C] tt -20cm [°C] tt -100cm [°C] ff [km/h] ff [knt] fx [km/h] fx [knt] dd ppp [hPa] vv [km] sd [min] rr [mm]
22.01.2019 03:00:00 -0,8 -2,2 -1,0 3,2 7,2 4 2 7 4 W 1018,6 4,7 0 0,0
22.01.2019 02:00:00 -0,9 -2,0 -1,1 3,2 7,2 6 3 9 5 WNW 1019,1 2,8 0 0,0
22.01.2019 01:00:00 -1,0 -2,1 -1,1 3,3 7,2 2 1 4 2 SW 1020,0 3,0 0 0,0
22.01.2019 00:00:00 -1,1 -2,2 -1,2 3,3 7,2 3 2 6 3 WSW 1020,6 3,1 0 0,0
21.01.2019 23:00:00 -1,0 -2,3 -1,2 3,3 7,1 0 0 9 5 N 1020,9 3,5 0 0,0
21.01.2019 22:00:00 -1,0 -2,3 -1,2 3,3 7,2 5 3 13 7 WNW 1021,4 3,3 0 0,0
21.01.2019 21:00:00 -0,9 -1,9 -1,1 3,3 7,2 6 3 14 8 NW 1021,4 2,4 0 0,0
21.01.2019 20:00:00 -0,6 -1,4 -0,7 3,3 7,2 5 3 10 5 W 1021,4 2,1 0 0,0
21.01.2019 19:00:00 -0,5 -1,5 -0,5 3,3 7,2 3 2 11 6 N 1021,3 2,8 0 0,0
21.01.2019 18:00:00 -0,4 -1,4 -0,4 3,3 7,2 4 2 13 7 NW 1021,3 2,9 0 0,0
21.01.2019 17:00:00 -0,1 -1,5 -0,1 3,3 7,2 5 3 10 5 E 1021,2 3,7 0 0,0
21.01.2019 16:00:00 0,0 -1,4 0,3 3,3 7,2 0 0 12 6 N 1021,2 3,8 0 0,0
21.01.2019 15:00:00 0,2 -1,2 0,5 3,3 7,2 6 4 11 6 W 1021,2 3,8 0 0,0
21.01.2019 14:00:00 0,2 -1,4 0,7 3,3 7,2 2 1 11 6 SSW 1021,4 3,9 0 0,0
21.01.2019 13:00:00 0,1 -1,7 0,9 3,3 7,2 3 2 9 5 S 1021,7 4,8 0 0,0
21.01.2019 12:00:00 0,1 -1,5 0,4 3,3 7,2 4 2 12 7 SE 1022,0 3,5 0 0,0
21.01.2019 11:00:00 -0,2 -1,8 0,1 3,3 7,2 2 1 9 5 ESE 1021,9 3,5 0 0,0
21.01.2019 10:00:00 -0,3 -2,0 -0,3 3,3 7,2 3 2 12 7 S 1021,5 4,1 0 0,0
21.01.2019 09:00:00 -0,4 -2,3 -0,4 3,4 7,3 4 2 7 4 ESE 1021,1 4,7 0 0,0
21.01.2019 08:00:00 -0,3 -2,0 -0,3 3,4 7,2 3 1 6 3 NE 1020,9 4,7 0 0,0
21.01.2019 07:00:00 -0,3 -2,2 -0,4 3,4 7,3 4 2 8 4 E 1020,4 5 0 0,0
21.01.2019 06:00:00 -0,3 -2,0 -0,4 3,4 7,3 6 3 10 6 SE 1020,0 5 0 0,0
21.01.2019 05:00:00 -0,3 -2,0 -0,3 3,4 7,3 8 4 14 8 SE 1019,8 4,7 0 0,0
21.01.2019 04:00:00 0,0 -1,8 -0,1 3,4 7,3 9 5 14 8 SE 1019,7 5 0 0,0
21.01.2019 03:00:00 0,2 -1,9 0,1 3,4 7,3 8 5 11 6 SE 1019,6 6 0 0,0
21.01.2019 02:00:00 0,4 -1,8 0,2 3,4 7,3 7 4 10 6 SSE 1019,4 6 0 0,0
21.01.2019 01:00:00 0,6 -1,5 0,4 3,4 7,3 6 3 12 7 SSE 1019,1 6 0 0,0
21.01.2019 00:00:00 0,7 -1,5 0,6 3,4 7,3 6 4 13 7 SE 1019,0 4,5 0 0,0
20.01.2019 23:00:00 1,0 -1,6 0,6 3,4 7,3 5 3 9 5 SE 1018,3 7 0 0,0
20.01.2019 22:00:00 1,1 -1,0 0,6 3,4 7,3 6 3 11 6 SE 1017,8 6 0 0,0
20.01.2019 21:00:00 1,6 -0,7 1,1 3,3 7,3 6 3 9 5 SE 1017,2 7 0 0,0
20.01.2019 20:00:00 1,9 -0,2 1,3 3,3 7,3 8 4 12 6 E 1016,8 6 0 0,0
20.01.2019 19:00:00 2,5 0,4 2,1 3,2 7,3 6 4 9 5 SE 1016,1 7 0 0,0
20.01.2019 18:00:00 2,9 0,5 2,7 3,1 7,4 4 2 11 6 E 1015,5 9 0 0,0
20.01.2019 17:00:00 3,5 0,5 3,5 3,0 7,3 8 4 11 6 SE 1014,8 10 0 0,0
20.01.2019 16:00:00 4,4 0,5 5,0 2,9 7,4 9 5 16 8 SSW 1014,4 14 25 0,0
20.01.2019 15:00:00 4,6 0,7 5,5 2,9 7,4 8 4 14 7 ESE 1014,1 12 55 0,0
20.01.2019 14:00:00 3,7 0,6 4,8 2,8 7,4 8 4 16 9 SSE 1014,1 9 4 0,0
20.01.2019 13:00:00 2,9 0,0 3,4 2,8 7,4 9 5 17 9 ESE 1014,4 9 20 0,0
20.01.2019 12:00:00 2,1 -1,2 2,0 2,8 7,4 9 5 13 7 ESE 1014,6 11 0 0,0
20.01.2019 11:00:00 1,2 -2,0 0,8 2,9 7,4 6 3 12 6 E 1014,4 11 0 0,0
20.01.2019 10:00:00 0,7 -2,7 0,0 2,9 7,4 8 5 14 8 E 1013,9 6 2 0,0
20.01.2019 09:00:00 0,0 -3,0 -0,3 2,9 7,4 9 5 17 9 E 1013,5 10 0 0,0
20.01.2019 08:00:00 0,0 -3,2 -0,5 2,9 7,4 11 6 17 9 ESE 1013,1 10 0 0,0
20.01.2019 07:00:00 0,0 -3,4 -0,4 2,9 7,4 9 5 13 7 E 1012,8 11 0 0,0
20.01.2019 06:00:00 -0,1 -3,1 -0,5 2,9 7,4 11 6 18 10 ESE 1012,7 10 0 0,0
20.01.2019 05:00:00 -0,1 -3,3 -0,5 3,0 7,4 11 6 18 10 SE 1012,8 11 0 0,0
20.01.2019 04:00:00 -0,1 -3,7 -0,8 3,0 7,4 11 6 18 10 ESE 1012,9 12 0 0,0
20.01.2019 03:00:00 -0,2 -3,6 -0,6 3,0 7,4 10 5 15 8 E 1012,9 11 0 0,0
20.01.2019 02:00:00 0,1 -3,5 -0,8 3,0 7,4 8 4 14 8 ESE 1012,8 12 0 0,0
20.01.2019 01:00:00 -0,5 -3,7 -1,1 3,1 7,4 10 5 14 8 E 1013,0 13 0 0,0
20.01.2019 00:00:00 -0,8 -4,0 -1,2 3,1 7,4 11 6 14 8 E 1013,2 12 0 0,0
19.01.2019 23:00:00 -0,6 -4,0 -1,2 3,1 7,4 7 4 11 6 NNE 1013,2 11 0 0,0
19.01.2019 22:00:00 -0,8 -4,5 -2,0 3,2 7,4 8 5 12 7 ENE 1013,1 12 0 0,0
19.01.2019 21:00:00 -1,1 -4,8 -1,8 3,3 7,5 10 5 14 7 E 1013,2 14 0 0,0
19.01.2019 20:00:00 -1,2 -4,7 -2,4 3,3 7,4 5 3 15 8 ENE 1013,4 18 0 0,0
19.01.2019 19:00:00 -1,3 -4,6 -2,6 3,3 7,4 10 6 14 7 E 1013,4 20 0 0,0
19.01.2019 18:00:00 -0,4 -4,3 -1,6 3,2 7,5 7 4 10 6 SE 1013,5 30 0 0,0
19.01.2019 17:00:00 1,8 -4,5 0,6 3,2 7,5 7 4 11 6 SE 1013,4 31 47 0,0
19.01.2019 16:00:00 3,1 -4,8 3,4 3,1 7,5 10 5 15 8 SE 1013,5 40 57 0,0
19.01.2019 15:00:00 2,0 -3,7 2,7 3,1 7,5 7 4 18 10 SE 1014,1 33 11 0,0
19.01.2019 14:00:00 3,2 -3,4 5,6 3,1 7,5 10 5 19 10 SE 1014,6 19 60 0,0
19.01.2019 13:00:00 2,4 -3,5 3,6 3,2 7,5 14 7 22 12 SSE 1015,5 20 60 0,0
19.01.2019 12:00:00 1,7 -3,2 0,1 3,2 7,5 15 8 23 12 SSE 1016,2 10 60 0,0
19.01.2019 11:00:00 0,5 -3,2 -3,4 3,3 7,4 13 7 20 11 SE 1016,9 16 60 0,0
19.01.2019 10:00:00 -2,6 -4,5 -6,7 3,4 7,5 5 3 8 5 E 1017,3 17 60 0,0
19.01.2019 09:00:00 -5,6 -7,0 -8,4 3,4 7,5 4 2 9 5 NE 1017,7 17 17 0,0
19.01.2019 08:00:00 -6,0 -7,4 -7,8 3,5 7,5 5 3 9 5 NE 1017,5 19 0 0,0
19.01.2019 07:00:00 -5,4 -6,6 -6,7 3,6 7,5 6 3 8 4 ENE 1017,3 21 0 0,0
19.01.2019 06:00:00 -4,8 -5,8 -7,8 3,7 7,5 3 2 5 3 NNE 1017,4 6 0 0,0
19.01.2019 05:00:00 -5,5 -6,5 -7,4 3,7 7,5 3 2 7 4 SE 1017,7 12 0 0,0
19.01.2019 04:00:00 -5,4 -6,2 -9,4 3,8 7,5 5 3 8 4 ENE 1018,1 0,4 0 0,0
19.01.2019 03:00:00 -5,2 -6,0 -7,9 3,9 7,5 0 0 4 2 N 1018,5 0,1 0 0,0
19.01.2019 02:00:00 -4,5 -5,2 -7,3 4,0 7,5 0 0 4 2 N 1018,6 0,2 0 0,0
19.01.2019 01:00:00 -4,1 -4,6 -7,0 4,1 7,5 2 1 5 3 ESE 1018,9 0,2 0 0,0
19.01.2019 00:00:00 -4,7 -5,4 -7,4 4,2 7,5 0 0 5 3 N 1019,4 0,1 0 0,0
18.01.2019 23:00:00 -3,3 -3,8 -6,4 4,3 7,5 4 2 5 3 SE 1019,0 0,3 0 0,0
18.01.2019 22:00:00 -3,2 -3,7 -7,3 4,4 7,5 2 1 3 2 ESE 1019,1 0,2 0 0,0
18.01.2019 21:00:00 -2,5 -3,2 -6,1 4,4 7,5 0 0 3 1 N 1019,0 6 0 0,0
18.01.2019 20:00:00 -2,4 -3,5 -5,3 4,4 7,5 3 2 6 3 NW 1019,2 7 0 0,0
18.01.2019 19:00:00 -0,2 -2,1 -3,0 4,4 7,5 5 3 7 4 WNW 1019,0 19 0 0,0
18.01.2019 18:00:00 0,7 -2,2 -0,3 4,3 7,5 0 0 10 5 N 1019,1 36 0 0,0
18.01.2019 17:00:00 1,9 -2,1 1,4 4,2 7,5 6 3 12 6 NNE 1019,1 53 30 0,0
18.01.2019 16:00:00 2,7 -2,4 3,0 4,0 7,5 8 4 16 9 NNE 1019,2 52 41 0,0
18.01.2019 15:00:00 3,9 -2,5 7,0 3,9 7,5 2 1 8 4 SW 1019,5 56 60 0,0
18.01.2019 14:00:00 3,7 -2,3 7,6 3,9 7,5 3 2 10 5 WSW 1019,8 49 60 0,0
18.01.2019 13:00:00 3,5 -2,3 5,0 3,9 7,5 6 4 16 9 SSE 1020,2 45 60 0,0
18.01.2019 12:00:00 2,5 -1,9 2,6 3,9 7,5 5 3 12 6 ESE 1020,9 20 60 0,0
18.01.2019 11:00:00 2,0 -1,6 -1,1 4,0 7,5 5 3 9 5 ESE 1021,4 20 60 0,0
18.01.2019 10:00:00 -0,7 -1,7 -5,6 4,1 7,5 5 3 8 4 W 1021,6 9 60 0,0
18.01.2019 09:00:00 -3,1 -3,6 -6,3 4,2 7,5 6 3 12 7 SSW 1021,6 5 16 0,0
18.01.2019 08:00:00 -2,9 -3,4 -6,0 4,3 7,5 8 4 12 7 NW 1021,4 7 0 0,0
18.01.2019 07:00:00 -1,8 -2,5 -4,0 4,4 7,5 4 2 6 4 NE 1020,8 9 0 0,0
18.01.2019 06:00:00 -2,4 -3,2 -5,6 4,5 7,5 2 1 6 3 E 1020,6 9 0 0,0
18.01.2019 05:00:00 -2,6 -3,6 -5,3 4,5 7,5 5 3 11 6 W 1020,3 10 0 0,0
18.01.2019 04:00:00 -1,6 -2,9 -3,0 4,6 7,5 6 3 14 8 WNW 1019,9 18 0 0,0
18.01.2019 03:00:00 -0,8 -1,5 -1,6 4,7 7,5 3 2 7 4 NNW 1020,2 16 0 0,0
18.01.2019 02:00:00 -0,8 -1,6 -3,1 4,8 7,5 5 3 13 7 NNW 1019,8 20 0 0,0
18.01.2019 01:00:00 0,0 -1,0 -0,6 4,8 7,5 8 4 17 9 NW 1019,1 18 0 0,0
18.01.2019 00:00:00 0,8 -0,4 -0,1 4,9 7,5 11 6 21 11 WNW 1018,6 20 0 0,0
17.01.2019 23:00:00 1,7 0,5 1,1 4,9 7,5 10 6 18 10 WNW 1017,6 60 0 0,0
17.01.2019 22:00:00 2,0 0,8 1,5 4,9 7,5 9 5 35 19 W 1017,2 60 0 0,0
17.01.2019 21:00:00 2,9 0,6 0,1 5,0 7,5 25 14 47 25 W 1016,1 19 0 0,2
17.01.2019 20:00:00 1,8 0,2 -0,5 5,0 7,5 4 2 18 10 SW 1015,4 60 0 0,0
17.01.2019 19:00:00 3,2 1,2 1,9 5,0 7,5 12 7 25 14 WSW 1014,8 60 0 0,0
17.01.2019 18:00:00 3,4 1,1 2,3 5,0 7,5 22 12 46 25 W 1014,4 8 0 0,2
17.01.2019 17:00:00 5,0 -0,2 3,5 4,9 7,5 16 9 40 21 W 1013,1 60 12 0,2
17.01.2019 16:00:00 6,4 1,1 5,7 4,8 7,5 27 14 45 24 WNW 1012,1 60 34 0,0
17.01.2019 15:00:00 7,3 2,8 4,0 4,8 7,6 24 13 42 23 WSW 1011,4 57 36 0,2
17.01.2019 14:00:00 5,7 2,5 4,8 4,7 7,5 20 11 45 24 WSW 1011,5 15 1 0,0
17.01.2019 13:00:00 6,6 1,7 6,2 4,6 7,5 29 15 52 28 WSW 1011,2 60 1 0,0
17.01.2019 12:00:00 6,5 2,4 6,1 4,6 7,5 27 15 55 30 W 1011,5 59 13 0,0
17.01.2019 11:00:00 6,8 4,8 5,0 4,5 7,5 21 11 44 24 WSW 1011,2 49 12 0,2
17.01.2019 10:00:00 5,7 4,7 5,0 4,5 7,5 13 7 32 17 W 1010,9 6 0 0,2
17.01.2019 09:00:00 5,8 4,4 5,1 4,5 7,5 27 15 51 27 SW 1010,2 11 0 0,8
17.01.2019 08:00:00 6,6 3,9 5,0 4,4 7,6 32 17 51 28 SW 1009,5 8 0 1,0
17.01.2019 07:00:00 6,6 3,9 5,1 4,4 7,5 18 10 41 22 SSW 1009,3 39 0 0,0
17.01.2019 06:00:00 6,2 4,0 4,8 4,4 7,6 23 12 39 21 SSW 1009,5 19 0 0,8
17.01.2019 05:00:00 6,1 3,6 4,1 4,4 7,5 22 12 35 19 SSW 1009,9 11 0 0,4
17.01.2019 04:00:00 5,3 3,0 3,8 4,4 7,5 6 3 14 8 E 1010,9 19 0 0,0
17.01.2019 03:00:00 4,9 3,4 3,9 4,5 7,5 11 6 37 20 SSW 1011,9 11 0 0,4
17.01.2019 02:00:00 5,5 2,7 2,5 4,5 7,6 23 12 40 22 SW 1012,2 20 0 0,0
17.01.2019 01:00:00 2,9 1,4 1,3 4,6 7,6 13 7 24 13 SSW 1012,9 12 0 0,0
17.01.2019 00:00:00 1,4 0,2 -0,8 4,7 7,5 6 3 9 5 E 1013,5 6 0 0,0
16.01.2019 23:00:00 0,0 -0,6 -1,7 4,7 7,5 5 3 18 10 E 1013,7 10 0 0,0
16.01.2019 22:00:00 -0,3 -1,4 -1,1 4,8 7,6 4 2 10 6 ESE 1013,1 9 0 0,0
16.01.2019 21:00:00 1,3 0,0 0,5 4,8 7,5 5 3 16 9 ENE 1012,2 12 0 0,0
16.01.2019 20:00:00 2,1 0,8 0,2 4,8 7,5 12 7 - - E 1012,2 17 0 0,0
16.01.2019 19:00:00 1,6 0,4 0,2 4,7 7,5 10 5 - - ESE 1012,4 27 0 0,0
16.01.2019 18:00:00 3,3 0,7 1,9 4,6 7,5 5 3 10 5 ENE 1012,7 20 0 0,0
16.01.2019 17:00:00 5,0 1,1 4,2 4,5 7,5 6 3 9 5 E 1012,8 53 43 0,0
16.01.2019 16:00:00 7,1 1,6 9,0 4,4 7,6 6 4 18 10 SE 1013,0 44 60 0,0
16.01.2019 15:00:00 6,7 1,0 8,4 4,3 7,6 3 2 11 6 SE 1013,6 46 60 0,0
16.01.2019 14:00:00 6,5 1,0 8,3 4,1 7,5 3 1 13 7 SW 1014,3 20 60 0,0
16.01.2019 13:00:00 5,4 0,9 6,9 4,2 7,5 5 3 11 6 SE 1015,2 45 60 0,0
16.01.2019 12:00:00 4,4 1,2 3,7 4,2 7,5 6 4 12 7 SE 1016,3 19 60 0,0
16.01.2019 11:00:00 2,1 0,5 -0,5 4,3 7,6 7 4 - - ESE 1017,5 17 60 0,0
16.01.2019 10:00:00 -0,1 -1,0 -2,0 4,4 7,6 10 6 15 8 ESE 1018,2 10 60 0,0
16.01.2019 09:00:00 -1,5 -2,2 -3,3 4,5 7,5 9 5 17 9 E 1018,8 9 15 0,0
16.01.2019 08:00:00 -1,9 -2,5 -3,6 4,6 7,6 9 5 - - E 1018,8 11 0 0,0
16.01.2019 07:00:00 -2,4 -3,0 -3,6 4,7 7,6 10 6 18 10 ESE 1019,0 11 0 0,0
16.01.2019 06:00:00 -1,5 -2,1 -2,5 4,8 7,6 10 5 13 7 E 1019,5 11 0 0,0
16.01.2019 05:00:00 -1,2 -1,6 -2,3 4,8 7,5 9 5 13 7 ENE 1019,9 10 0 0,0
16.01.2019 04:00:00 -1,6 -1,9 -3,3 4,9 7,5 9 5 10 6 E 1020,5 5 0 0,0
16.01.2019 03:00:00 -1,7 -2,1 -2,5 5,0 7,5 8 5 12 7 E 1021,4 0,4 0 0,0

tt = Température de l'air
td = dewpoint
tt 5cm = Température de l'air 5cm
tt -20cm = Température de l'air -20cm
tt -100cm = Température de l'air -100cm
ff = Vitesse du vent
fx = gusts
dd = Direction du vent
ppp = reduced air pressure
vv = visibility
sd = Ensoleillement
rr = Quantités de précipitations

stations d'obs. à proximité